Simultaneous Nadir Overpasses (SNOs) Predictions

Prediction of SNOs between FY3D and METOP-C Satellite Orbit:

Table of predicted SNOs for the next 14.0 days since TLE Epoch: 8/24/2024
Index Date (FY3D) Time (FY3D) Lat,Lon (FY3D) SZA (FY3D ) Date (METOP-C) Time (METOP-C) Lat,Lon (METOP-C) SZA (METOP-C ) Distance(km) Time Diff (sec)
1 09/06/2024 10:10:11 -76.65,-154.08 109.60 09/06/2024 10:11:15 -76.62,-150.19 109.61 99.97 64
2 09/06/2024 11:00:52 76.43, 14.08 70.20 09/06/2024 11:02:01 76.37, 16.20 70.14 56.01 69
3 09/06/2024 11:51:33 -76.28,-178.02 109.95 09/06/2024 11:52:45 -76.24,-176.93 109.98 29.00 72
4 09/06/2024 12:42:15 76.10, -10.06 69.89 09/06/2024 12:43:28 76.12, -10.03 69.91 2.56 73
5 09/06/2024 13:33:00 -76.12, 157.17 110.08 09/06/2024 13:34:09 -76.13, 157.33 110.07 4.28 69
6 09/06/2024 14:23:45 76.08, -35.37 69.89 09/06/2024 14:24:50 76.10, -35.44 69.91 3.00 65
7 09/06/2024 15:14:30 -76.10, 131.87 110.07 09/06/2024 15:15:31 -76.10, 131.91 110.07 1.14 61
8 09/06/2024 16:05:16 76.10, -60.83 69.94 09/06/2024 16:06:12 76.07, -60.86 69.92 3.28 56
9 09/06/2024 16:56:00 -76.08, 106.57 110.07 09/06/2024 16:56:53 -76.08, 106.49 110.07 2.06 53
10 09/06/2024 17:46:46 76.08, -86.13 69.95 09/06/2024 17:47:33 76.10, -86.12 69.97 1.75 47
11 09/06/2024 18:37:31 -76.10, 81.11 110.02 09/06/2024 18:38:14 -76.10, 81.23 110.02 3.30 43
12 09/06/2024 19:28:16 76.06,-111.43 69.96 09/06/2024 19:28:55 76.07,-111.54 69.97 3.39 39
13 09/06/2024 20:19:01 -76.08, 55.81 110.01 09/06/2024 20:19:36 -76.08, 55.81 110.01 0.27 35
14 09/06/2024 21:09:47 76.08,-136.89 70.01 09/06/2024 21:10:16 76.10,-136.80 70.02 2.72 29
15 09/06/2024 22:00:31 -76.06, 30.51 110.01 09/06/2024 22:00:58 -76.06, 30.39 110.01 3.02 27
16 09/06/2024 22:51:17 76.06,-162.19 70.01 09/06/2024 22:51:38 76.07,-162.22 70.02 1.38 21
17 09/06/2024 23:42:02 -76.08, 5.04 109.96 09/06/2024 23:42:19 -76.08, 5.13 109.96 2.43 17
18 09/07/2024 00:32:47 76.04, 172.51 70.02 09/07/2024 00:33:00 76.05, 172.36 70.03 4.04 13
19 09/07/2024 01:23:32 -76.06, -20.26 109.95 09/07/2024 01:23:41 -76.06, -20.29 109.96 1.12 9
20 09/07/2024 02:14:18 76.07, 147.05 70.07 09/07/2024 02:14:21 76.07, 147.10 70.08 1.61 3
21 09/07/2024 03:05:02 -76.04, -45.56 109.95 09/07/2024 03:05:03 -76.03, -45.70 109.96 4.05 1



Historial Predications of SNOs between FY3D and METOP-C
